Temperature
18 17 17 17 16 16 16 16 16 16 16 16 16 16 16 16 16 15 16 16 16 16 15 15 15 16 16 16 16 16 16 16 16 16 16 16 16 15 15 14 13 13 14
19 17 17 17 17 16 16 16 16 16 16 16 16 16 16 16 16 16 16 16 16 16 16 16 16 16 16 16 16 16 16 16 16 16 16 15 15 15 15 14 14 14 14
19 17 17 17 16 16 16 16 16 16 16 16 16 16 16 16 16 16 16 16 16 16 16 16 16 16 16 16 16 16 16 16 16 16 15 13 14 15 14 14 14 14 14
19 17 16 17 16 16 16 16 16 16 16 16 16 16 16 16 16 16 16 17 17 17 17 17 17 16 16 16 16 16 16 16 16 16 14 13 13 14 14 14 14 14 14
18 17 16 16 16 16 16 16 16 16 16 17 16 16 16 16 16 16 17 17 17 17 17 17 17 17 16 16 16 16 16 16 16 15 14 14 14 14 14 14 14 14 14
17 16 16 16 16 16 16 16 16 16 17 17 16 16 16 16 16 16 17 17 17 17 17 17 17 17 16 16 16 16 16 16 15 15 15 14 14 14 14 14 14 13 13
17 16 16 16 16 16 16 16 16 17 17 17 16 16 16 16 16 16 17 17 17 17 17 17 17 17 17 16 16 16 16 16 15 15 15 14 14 14 14 13 13 13 13
16 16 15 16 16 16 16 16 16 17 17 17 17 16 16 16 16 16 17 17 17 17 17 17 17 17 17 16 16 16 16 16 15 15 14 14 14 14 14 13 13 13 13
16 16 15 15 15 15 16 16 16 17 17 17 17 17 17 17 17 17 17 17 17 17 17 17 17 17 16 16 16 16 16 16 14 14 14 14 14 14 13 13 13 13 13
15 15 15 15 15 15 15 16 16 16 17 17 17 17 17 17 17 17 17 17 16 16 16 16 16 16 16 16 16 16 16 15 14 14 14 14 14 13 13 13 13 13 13
15 15 15 15 15 15 15 15 16 16 16 17 17 17 17 16 16 17 17 17 16 16 16 16 16 16 16 16 15 15 15 14 14 14 14 14 14 13 13 13 13 13 13
15 15 15 15 15 15 15 15 15 15 16 16 16 17 16 16 16 16 17 16 16 16 16 16 16 15 15 15 15 15 14 14 14 13 13 14 13 13 13 13 13 13 13
15 15 15 15 14 14 14 15 15 15 15 15 16 16 16 16 16 16 16 16 16 16 15 15 15 15 14 14 14 14 14 14 13 13 13 14 13 13 13 13 13 13 13
15 15 15 14 14 14 14 14 15 15 15 15 16 16 16 16 16 15 15 15 15 15 15 15 14 14 14 14 14 14 14 14 13 13 13 13 13 13 13 12 12 12 12
15 15 15 15 14 14 14 14 15 15 15 15 15 15 15 15 15 15 15 15 15 14 14 14 13 13 13 13 13 13 13 13 13 13 13 13 13 13 13 12 12 12 12
15 15 15 15 15 15 15 15 15 15 15 15 15 15 15 15 15 15 15 15 14 14 14 14 13 13 13 13 13 13 13 13 13 13 12 12 13 12 12 12 12 12 11
15 15 15 15 15 15 15 15 15 15 15 15 15 15 15 15 15 14 14 14 14 14 14 13 13 13 13 13 13 13 13 13 13 13 12 12 12 12 12 12 12 12 11
16 15 15 15 15 15 15 15 15 15 15 15 15 15 15 15 14 14 14 14 14 14 14 13 13 13 13 13 13 13 13 13 13 13 13 13 12 12 12 12 12 12 11
16 16 16 15 15 15 15 15 15 15 15 15 15 15 15 15 14 14 14 14 14 14 14 14 13 13 13 13 13 13 13 13 13 13 13 13 12 12 12 12 12 12 11
16 16 16 15 15 15 15 15 15 15 15 15 15 15 15 14 14 14 14 14 14 14 14 14 13 13 13 13 13 13 13 13 13 13 13 12 12 12 12 12 12 11 11
16 16 16 16 16 15 15 15 15 15 15 15 15 15 15 15 14 14 14 14 14 14 14 13 13 13 13 13 12 12 12 12 12 12 12 12 12 12 12 12 11 11 11
16 16 16 16 16 16 15 15 15 15 15 15 15 15 15 15 15 14 14 14 14 14 14 13 13 13 12 12 12 11 11 12 12 12 12 12 11 11 11 11 11 11 10
16 17 17 16 16 16 16 15 15 15 15 15 15 15 15 15 14 14 14 14 14 14 13 13 13 12 12 12 11 11 11 12 11 11 11 11 11 10 10 10 10 10 10
16 16 16 16 16 16 16 15 15 15 15 15 15 14 14 14 14 14 14 13 13 13 13 13 13 12 12 11 11 11 10 10 10 10 10 10 10 10 9 9 9 9 9
16 16 16 16 16 15 15 15 15 15 14 14 14 14 14 13 13 13 13 13 13 13 12 12 12 12 11 11 10 10 10 10 9 9 9 9 9 9 9 9 8 8 8
15 15 15 15 15 15 14 14 14 14 14 13 13 13 13 13 12 12 12 12 12 12 11 11 11 11 11 10 10 10 9 9 9 9 8 8 8 8 8 8 8 8 7
Wind_Speed
13 18 21 18 17 16 16 15 15 14 13 13 12 11 12 13 14 14 15 15 15 15 16 17 18 18 18 17 17 16 16 15 15 14 13 13 12 11 11 10 8 10 10
17 20 21 18 17 16 16 15 15 14 13 12 11 11 12 13 13 14 14 14 14 15 16 17 17 17 17 16 16 15 14 14 13 11 8 10 11 11 10 10 11 10 9
18 20 21 18 17 16 16 16 15 13 12 11 10 10 12 13 13 14 14 14 14 14 15 16 16 15 15 14 14 13 12 12 10 7 2 8 10 10 9 9 10 10 9
19 19 19 19 17 16 16 15 14 13 11 10 9 10 12 13 13 13 13 14 14 14 14 15 14 13 13 12 11 11 10 10 8 3 6 8 8 9 8 9 9 10 10
18 17 18 19 17 17 17 15 14 12 11 9 9 9 11 12 13 13 14 13 13 13 13 13 12 12 11 10 9 9 8 7 4 5 8 7 8 9 9 9 10 10 10
17 17 18 18 18 17 17 16 14 12 10 9 9 10 11 12 13 13 13 12 12 12 11 11 11 10 10 9 8 8 7 5 3 7 7 7 8 9 10 10 10 10 11
16 16 18 18 18 17 17 16 14 12 10 9 9 10 11 13 13 12 11 11 10 10 10 9 9 8 8 8 7 7 6 4 6 6 6 6 8 8 9 9 10 10 10
15 15 17 18 18 17 17 16 14 12 10 9 9 10 11 12 11 10 9 9 9 8 8 7 7 7 6 6 6 5 4 3 4 5 5 5 7 6 7 8 9 9 9
14 14 15 17 17 17 17 16 14 12 10 9 9 10 11 10 10 9 8 7 7 7 6 6 5 5 5 5 5 4 3 2 4 4 3 4 5 4 6 6 7 7 8
12 12 13 15 15 15 15 16 14 12 11 9 9 10 10 9 8 7 6 6 5 5 5 5 4 4 5 5 4 3 2 2 3 3 2 4 3 2 4 4 5 5 6
10 10 11 12 13 13 13 14 13 12 11 10 9 9 7 6 6 6 4 5 4 4 4 4 4 4 3 3 3 1 2 2 2 2 1 3 1 1 2 2 2 3 3
12 10 9 10 11 12 11 12 10 10 10 8 7 8 6 4 3 3 6 3 3 2 2 3 3 3 2 1 1 2 2 2 3 2 1 0 3 3 3 2 1 0 1
11 9 9 9 10 11 9 9 8 7 8 7 7 7 5 5 4 5 5 5 5 5 4 3 4 3 2 2 3 3 3 4 4 3 2 3 5 5 5 4 4 3 2
10 10 9 9 9 10 9 8 8 7 7 7 7 7 6 5 4 4 5 5 5 5 4 5 4 4 4 4 5 5 5 5 5 5 4 6 8 8 8 8 7 6 5
10 10 10 9 9 9 8 7 7 7 7 7 7 8 7 6 5 5 5 5 6 5 5 5 6 5 6 6 6 6 7 7 7 7 7 9 12 11 12 11 10 9 8
10 10 10 11 11 10 9 8 8 8 7 7 7 8 8 7 6 5 6 6 6 7 6 6 7 6 6 6 7 8 8 8 9 9 9 9 13 16 15 15 14 13 12
10 10 11 11 11 11 10 10 8 8 8 8 8 9 9 9 8 7 6 6 7 8 8 8 8 7 7 7 9 10 9 10 10 11 11 10 11 15 18 18 18 16 15
9 10 10 9 11 11 10 9 8 8 8 8 8 8 10 10 10 8 7 7 8 8 8 7 7 7 7 7 8 8 8 8 11 12 12 12 12 11 13 18 20 19 18
9 10 10 11 11 11 10 9 8 8 8 8 7 8 9 10 11 10 9 9 9 8 8 7 7 7 8 8 8 8 8 8 10 10 12 13 12 12 12 12 16 19 19
8 9 9 10 10 9 8 7 6 7 7 7 7 8 9 9 10 11 9 10 10 7 7 8 9 8 7 7 7 8 9 9 9 9 10 11 10 11 11 12 11 13 17
7 8 9 9 9 8 6 6 6 6 6 6 6 7 8 8 9 10 9 9 9 8 9 9 8 8 7 6 5 7 8 10 10 8 7 7 7 8 9 9 10 10 10
6 7 7 8 8 8 7 5 4 4 4 4 3 4 4 6 7 8 9 8 8 8 10 10 9 6 6 5 5 5 6 7 7 6 5 5 5 5 5 6 8 9 10
5 6 5 6 6 6 6 5 4 3 3 3 3 2 2 4 5 6 8 8 7 7 8 9 9 10 8 6 7 6 6 6 4 3 4 4 4 3 4 5 6 8 8
5 4 5 5 5 4 5 5 6 5 5 3 1 1 1 2 3 4 5 6 6 6 7 8 8 8 8 7 6 7 8 6 5 5 4 4 3 4 5 4 6 6 7
6 6 6 6 6 5 4 4 4 3 2 1 1 2 2 1 2 3 3 4 5 5 6 7 7 8 7 8 7 5 5 5 6 6 7 6 5 4 4 5 5 6 6
8 7 7 7 7 6 5 4 3 3 2 2 2 2 2 1 1 2 3 3 4 4 5 6 6 7 7 8 7 6 5 4 5 6 7 6 6 5 5 4 4 5 6
Wind_Direction
161 159 149 152 151 146 141 136 129 122 116 111 108 107 106 103 97 93 87 85 84 85 87 89 89 88 86 84 81 79 76 73 70 67 64 61 60 61 55 40 34 68 66
155 156 147 152 152 149 143 136 129 122 115 110 109 110 111 107 102 97 91 89 88 89 91 91 91 88 86 83 81 79 76 73 68 64 64 80 65 56 53 44 35 50 64
152 154 152 152 151 148 142 135 130 123 116 112 113 116 116 112 105 100 94 92 91 92 93 92 90 88 85 82 80 77 75 71 66 58 35 69 72 58 54 51 48 50 56
152 155 157 149 149 145 140 135 131 124 118 114 118 120 120 115 108 102 96 94 94 94 93 92 89 87 83 80 77 75 73 69 60 12 56 56 61 58 57 54 54 54 53
152 155 148 147 146 143 139 136 133 127 120 118 123 126 124 118 110 104 99 97 97 97 96 94 90 84 79 75 73 73 72 70 57 45 59 57 60 58 62 61 61 59 55
152 153 148 147 144 142 140 139 136 131 125 123 126 127 127 120 111 105 102 102 102 101 99 96 91 83 76 72 72 74 74 63 29 55 56 57 62 65 70 64 63 60 56
151 152 150 147 144 144 143 141 139 135 131 129 131 129 126 118 112 109 107 107 106 105 103 99 93 86 79 73 71 76 77 48 40 53 54 61 59 64 71 65 63 60 54
151 153 152 147 146 147 145 143 141 137 135 131 129 128 123 118 115 113 111 109 107 106 104 101 96 90 84 76 71 75 75 20 43 51 57 68 61 71 77 70 65 56 48
154 156 156 157 154 149 147 146 144 141 138 132 126 120 120 122 123 122 120 115 111 107 103 103 100 92 83 73 67 69 67 360 12 45 51 71 66 75 88 77 67 53 44
159 162 161 162 161 160 157 151 148 146 142 135 125 120 122 126 130 131 140 120 113 108 103 101 99 92 83 73 66 67 57 287 17 34 43 73 72 96 98 85 70 54 41
164 165 165 165 165 163 160 155 154 152 148 148 143 137 151 165 160 158 127 115 116 112 106 105 107 109 112 103 85 62 273 328 3 356 2 53 320 161 129 112 84 56 36
171 167 169 169 167 165 159 163 165 164 165 176 167 169 181 176 177 172 136 148 148 142 145 128 133 163 230 236 163 246 293 309 308 307 323 326 265 223 191 184 182 116 10
176 172 174 173 173 171 167 171 170 171 174 181 180 181 183 184 185 196 192 185 199 206 214 184 213 229 264 290 294 286 296 294 289 288 266 240 268 251 230 227 227 231 251
185 184 181 179 180 181 178 179 181 183 186 188 190 194 194 197 205 208 217 215 220 222 233 244 255 253 261 264 271 278 273 270 275 278 274 246 260 261 250 245 244 240 241
194 194 191 187 189 187 186 188 195 199 200 200 197 203 209 212 216 220 225 227 233 238 239 248 257 265 269 271 268 270 272 268 267 265 263 243 248 255 256 254 250 246 241
204 201 196 196 197 194 195 199 204 206 207 213 211 213 216 224 227 231 236 236 240 241 248 255 261 268 272 272 274 270 268 267 262 262 263 254 241 245 249 251 251 249 245
212 207 200 199 200 202 205 207 212 211 211 214 219 222 224 230 235 238 245 244 245 246 250 256 263 267 270 271 271 271 269 268 265 263 261 260 255 242 241 246 249 249 247
214 209 203 199 203 207 209 211 214 217 215 219 222 227 230 235 239 244 247 250 252 252 251 253 261 262 263 265 271 274 271 268 269 268 265 260 260 259 248 241 246 249 249
216 209 203 202 206 209 212 216 220 222 222 225 225 230 234 238 241 243 249 253 254 251 251 252 255 259 267 270 273 278 278 274 274 269 266 263 260 259 263 254 244 249 251
212 207 203 201 206 207 208 215 219 226 230 231 233 236 241 243 244 247 251 255 256 252 252 251 253 255 262 274 280 277 275 273 270 268 270 268 263 262 265 268 263 253 246
196 196 197 197 199 196 195 204 212 221 225 227 232 242 247 249 249 248 252 257 253 250 254 257 255 255 255 253 263 274 271 263 263 263 264 271 272 274 273 273 271 271 264
189 188 190 193 194 196 200 201 210 213 222 229 228 239 253 258 257 253 254 257 255 254 257 257 250 249 251 233 245 274 282 273 243 243 254 264 281 286 283 284 281 276 276
179 176 171 174 182 188 191 185 180 190 203 208 220 239 279 284 274 265 263 263 262 256 258 260 254 248 253 244 230 244 267 278 295 243 247 258 277 290 298 305 298 293 287
163 148 146 149 150 156 174 190 201 212 222 224 239 260 301 320 308 294 281 273 268 262 261 263 259 254 253 253 239 235 249 273 271 278 250 249 273 292 306 311 309 307 303
154 145 138 132 123 121 132 153 179 193 202 195 228 256 272 296 326 323 305 286 277 270 267 266 263 254 249 252 250 238 236 242 243 256 272 271 271 281 305 314 315 316 319
155 148 144 133 118 111 110 113 128 147 170 205 239 260 270 273 297 343 332 311 296 287 279 274 268 261 254 253 252 244 238 238 238 241 257 268 274 285 301 307 317 330 336
Height
1547 1549 1552 1555 1558 1560 1562 1563 1564 1564 1564 1564 1564 1564 1564 1564 1564 1564 1564 1563 1563 1563 1563 1564 1564 1564 1565 1565 1564 1564 1563 1563 1562 1562 1561 1560 1560 1559 1559 1559 1559 1559 1558
1547 1549 1552 1556 1559 1561 1563 1564 1565 1565 1565 1565 1565 1565 1566 1566 1566 1566 1565 1565 1564 1564 1565 1565 1566 1566 1566 1566 1566 1566 1565 1565 1564 1564 1563 1563 1562 1562 1561 1561 1560 1560 1559
1547 1550 1552 1556 1559 1562 1563 1565 1566 1566 1567 1566 1567 1567 1568 1568 1568 1568 1567 1567 1566 1566 1567 1567 1567 1568 1568 1568 1568 1568 1567 1567 1566 1566 1565 1566 1565 1564 1563 1563 1562 1562 1561
1548 1551 1554 1557 1560 1562 1564 1566 1567 1567 1568 1568 1568 1569 1569 1570 1570 1570 1570 1569 1569 1569 1569 1569 1570 1570 1570 1570 1570 1570 1569 1569 1568 1567 1568 1568 1567 1566 1565 1565 1564 1564 1563
1548 1552 1554 1557 1560 1563 1565 1567 1568 1569 1569 1569 1569 1570 1571 1571 1572 1572 1572 1571 1571 1571 1572 1572 1572 1572 1572 1572 1572 1572 1571 1571 1570 1570 1569 1569 1569 1568 1567 1567 1566 1566 1565
1549 1553 1555 1558 1561 1564 1566 1567 1569 1570 1570 1570 1571 1572 1572 1573 1573 1573 1574 1574 1574 1574 1574 1574 1574 1575 1574 1574 1574 1574 1573 1572 1572 1572 1571 1571 1570 1570 1569 1569 1568 1567 1566
1550 1553 1556 1559 1562 1564 1566 1568 1569 1570 1571 1572 1572 1573 1574 1574 1575 1575 1575 1575 1576 1576 1576 1576 1576 1576 1576 1576 1576 1576 1575 1574 1574 1573 1573 1572 1572 1571 1570 1570 1569 1568 1567
1550 1554 1557 1560 1562 1565 1567 1568 1570 1571 1572 1573 1574 1574 1575 1576 1576 1576 1577 1577 1577 1577 1577 1578 1578 1578 1578 1578 1577 1577 1576 1576 1575 1575 1574 1574 1573 1572 1571 1571 1570 1568 1567
1551 1554 1557 1560 1563 1565 1567 1569 1570 1572 1573 1574 1574 1575 1576 1577 1577 1577 1578 1578 1578 1578 1578 1578 1579 1579 1579 1578 1578 1578 1577 1577 1577 1576 1575 1575 1573 1573 1572 1571 1570 1568 1567
1552 1555 1558 1561 1563 1565 1567 1569 1570 1572 1573 1574 1575 1575 1576 1577 1578 1578 1578 1579 1579 1579 1579 1579 1579 1579 1579 1579 1578 1578 1578 1577 1577 1577 1576 1575 1574 1573 1572 1571 1570 1568 1566
1552 1555 1558 1561 1563 1565 1567 1568 1570 1571 1572 1574 1575 1575 1576 1577 1578 1578 1578 1579 1579 1579 1579 1579 1579 1579 1579 1579 1578 1578 1577 1578 1577 1577 1576 1575 1574 1573 1572 1571 1569 1568 1566
1552 1554 1557 1560 1563 1565 1567 1568 1570 1571 1572 1573 1574 1575 1576 1577 1577 1578 1578 1578 1579 1579 1579 1579 1579 1579 1579 1578 1578 1578 1577 1577 1577 1576 1575 1574 1573 1572 1571 1570 1569 1567 1566
1553 1554 1557 1559 1562 1564 1566 1568 1569 1570 1572 1573 1574 1574 1575 1576 1577 1577 1578 1578 1578 1578 1579 1578 1578 1578 1578 1578 1577 1577 1576 1576 1576 1575 1574 1573 1572 1571 1570 1569 1568 1566 1565
1552 1554 1556 1558 1561 1563 1565 1567 1568 1570 1571 1572 1573 1574 1574 1575 1576 1576 1577 1577 1577 1578 1578 1578 1578 1578 1577 1576 1576 1576 1575 1574 1574 1573 1572 1571 1570 1570 1568 1567 1566 1565 1564
1551 1553 1555 1557 1559 1562 1564 1566 1567 1568 1570 1571 1571 1572 1573 1574 1574 1575 1575 1576 1576 1576 1576 1576 1576 1576 1576 1575 1574 1574 1573 1572 1572 1571 1570 1569 1568 1567 1567 1566 1564 1563 1562
1550 1552 1553 1555 1558 1560 1562 1564 1566 1567 1568 1569 1570 1571 1572 1572 1573 1573 1574 1574 1575 1575 1575 1575 1575 1574 1574 1573 1573 1572 1571 1570 1569 1569 1568 1567 1566 1565 1564 1563 1562 1561 1560
1549 1551 1552 1554 1556 1558 1561 1562 1564 1565 1566 1567 1568 1569 1570 1571 1571 1572 1572 1573 1573 1573 1573 1573 1573 1572 1572 1571 1570 1570 1569 1568 1567 1566 1565 1564 1563 1562 1561 1560 1559 1558 1557
1547 1549 1551 1553 1555 1557 1559 1561 1562 1564 1565 1565 1566 1567 1568 1569 1569 1570 1570 1571 1571 1571 1570 1570 1570 1569 1569 1568 1567 1567 1566 1564 1563 1562 1561 1560 1559 1558 1557 1556 1556 1555 1554
1546 1548 1550 1551 1553 1556 1557 1559 1561 1562 1563 1564 1564 1565 1566 1566 1567 1568 1568 1568 1568 1568 1568 1567 1567 1566 1565 1565 1564 1563 1562 1560 1559 1558 1557 1556 1555 1554 1553 1552 1551 1550 1550
1543 1546 1548 1550 1552 1554 1555 1557 1558 1559 1560 1561 1562 1563 1563 1564 1564 1565 1565 1565 1565 1564 1564 1564 1563 1562 1561 1560 1559 1558 1557 1556 1554 1553 1553 1551 1550 1549 1548 1547 1546 1545 1544
1541 1543 1545 1547 1549 1551 1553 1554 1556 1557 1558 1558 1559 1560 1560 1560 1561 1561 1561 1561 1561 1560 1560 1559 1558 1557 1557 1556 1554 1553 1552 1551 1549 1549 1548 1547 1546 1544 1543 1542 1541 1540 1539
1538 1540 1543 1545 1547 1549 1550 1552 1553 1554 1554 1555 1556 1556 1556 1556 1556 1556 1556 1556 1556 1555 1555 1554 1553 1552 1551 1551 1551 1549 1548 1548 1545 1544 1544 1543 1542 1541 1539 1538 1537 1535 1534
1535 1537 1540 1542 1544 1546 1547 1548 1549 1550 1551 1551 1551 1551 1552 1552 1551 1551 1551 1551 1550 1550 1549 1549 1548 1547 1546 1546 1546 1546 1545 1543 1542 1540 1539 1539 1538 1537 1536 1534 1533 1531 1530
1532 1534 1536 1539 1541 1542 1544 1545 1546 1546 1547 1547 1547 1547 1546 1546 1546 1546 1545 1545 1544 1544 1543 1543 1542 1541 1541 1540 1540 1540 1540 1539 1538 1536 1536 1535 1534 1533 1532 1530 1528 1527 1525
1528 1531 1533 1535 1537 1538 1540 1541 1542 1542 1542 1542 1542 1542 1541 1541 1540 1540 1539 1539 1538 1538 1537 1536 1536 1535 1535 1534 1534 1534 1534 1533 1533 1532 1531 1531 1530 1529 1528 1526 1524 1523 1521
1525 1527 1529 1531 1533 1535 1536 1537 1538 1538 1538 1538 1537 1537 1537 1536 1535 1534 1534 1533 1533 1532 1531 1531 1530 1530 1529 1529 1529 1529 1529 1528 1528 1527 1526 1526 1526 1525 1523 1522 1520 1519 1517